Regional Weather Roundup
Issued by NWS

Home | Current Version | Previous Version | Text Only | Print | Product List | Glossary On
Versions: 1 2 3 4 5 6 7 8 9 10 11 12 13 14 15 16 17 18 19 20 21 22 23 24 25 26 27 28 29 30 31 32 33 34 35 36 37 38 39 40 41 42 43 44 45 46 47 48 49 50
000
ASCA42 TJSJ 302211
RWRPR
PUERTO RICO/U.S. VIRGIN ISLANDS HOURLY WEATHER ROUNDUP
NATIONAL WEATHER SERVICE SAN JUAN PR
600 PM AST FRI JAN 30 2015

PRZ001-004-302300-
PUERTO RICO

CITY           SKY/WX    TMP DP  RH WIND       PRES   REMARKS
SAN JUAN LMM   PTCLDY    79  72  78 E9        29.97R
MAYAGUEZ       MOCLDY    77  68  73 E13       30.01
AGUADILLA      MOCLDY    77  68  73 E12       29.98R
CEIBA          PTCLDY    79  70  73 NE6       30.00R
$$

PRZ006-007-302300-
U.S. VIRGIN ISLANDS

CITY           SKY/WX    TMP DP  RH WIND       PRES   REMARKS
$$

HOURLY WEATHER ROUNDUP FOR THE NEWS MEDIA

CITY           SKY/WX    TMP DP  RH WIND       PRES   REMARKS
MIAMI          PTSUNNY   74  48  39 NW5       30.13R
ORLANDO        PTSUNNY   71  50  47 N9        30.13S
NEW YORK       PTCLDY    35  15  44 NW29G39   29.87R WCI  22
NEWARK         MOCLDY    33  18  53 NW21G32   29.90R WCI  21
CHICAGO        PTCLDY    28   9  44 W3        30.43F
HARTFORD       CLOUDY    33  30  88 NW5       29.71R WCI  29
BOSTON         CLOUDY    32  27  81 NW9       29.72R WCI  24
DALLAS         PTSUNNY   56  28  34 SE9       30.35F
PHILADELPHIA   FLURRIES  35  24  64 NW15G25   30.00R WCI  25


USA.gov is the U.S. government's official web portal to all federal, state and local government web resources and services.